Location: Cantaing
(50.1487°N, 3.1675°E)
Time: 21:23:57
(UTC+00:00)

Cosmos 2082 Rocket - Pass Details

Date: 19 April 2026
Orbit: 831 x 853 km, 71.0° (Epoch: 19 May)

Event Time Altitude Azimuth Distance (km) Brightness Sun altitude
Exits shadow 03:25:34 11° 269° (W) 2,404 4.1 -12.4°
Maximum altitude 03:29:50 24° 320° (NW) 1,707 3.7 -11.8°
Drops below altitude 10° 03:34:25 10° 13° (NNE) 2,494 5.4 -11.2°
Sets 03:37:23 0° 27° (NNE) 3,433 6.5 -10.8°
